Overview Statistics Trail Chart Weather Telemetry Raw packets
 

This is the latest recevied weather packets stored in our database for station/object K7SKM. If no packets are shown the sender has not sent any weather packets the latest 10 day(s).

<< 86 87 88 89 90 91 92 >>
Time Temp. Humidity Pressure Rain* Wind** Luminosity Snow
1788045473 19.44° C 60% 1022.3 hPa 0 mm - 46 W/m² -
1788045169 19.44° C 61% 1022.1 hPa 0 mm - 43 W/m² -
1788044869 19.44° C 59% 1022.2 hPa 0 mm - 41 W/m² -
1788044563 19.44° C 59% 1022.3 hPa 0 mm - 52 W/m² -
1788044262 19.44° C 60% 1022.2 hPa 0 mm - 66 W/m² -
1788043958 20° C 59% 1022.4 hPa 0 mm - 59 W/m² -
1788043654 20° C 60% 1022.3 hPa 0 mm - 62 W/m² -
1788043349 20° C 59% 1022.2 hPa 0 mm - 76 W/m² -
1788043049 20.56° C 58% 1022.1 hPa 0 mm - 69 W/m² -
1788042744 20° C 60% 1022.3 hPa 0 mm - 90 W/m² -
1788042443 20° C 60% 1022.2 hPa 0 mm - 73 W/m² -
1788042138 19.44° C 62% 1022.3 hPa 0 mm - 78 W/m² -
1788041834 19.44° C 62% 1022.3 hPa 0 mm - 93 W/m² -
1788041528 18.89° C 64% 1022.5 hPa 0 mm - 91 W/m² -
1788041224 18.89° C 62% 1022.6 hPa 0 mm - 84 W/m² -
1788040922 18.89° C 63% 1022.6 hPa 0 mm - 96 W/m² -
1788040621 19.44° C 63% 1022.5 hPa 0 mm - 108 W/m² -
1788040316 18.89° C 62% 1022.6 hPa 0 mm - 123 W/m² -
1788040016 20° C 62% 1022.6 hPa 0 mm - 275 W/m² -
1788039711 18.89° C 62% 1022.4 hPa 0 mm - 317 W/m² -
1788039406 20° C 61% 1022.6 hPa 0 mm - 84 W/m² -
1788039102 20° C 60% 1022.7 hPa 0 mm - 73 W/m² -
1788038797 20° C 60% 1022.6 hPa 0 mm - 103 W/m² -
1788038497 19.44° C 59% 1022.5 hPa 0 mm - 76 W/m² -
1788038191 20° C 59% 1022.6 hPa 0 mm - 88 W/m² -

* Rain latest hour (hover to see other rain measurements)
** Current wind speed in m/s (hover to see current wind gust speed)